RH
20 24 25 20 19 17 15 16 16 22 17 17 16 20 23 20 21 29 32 32 35 38 45 49 53 74 79 91 87 84 77 74 76 77 76 66 62 55 55 59 65 72 80 84
22 26 18 16 15 14 14 17 16 16 15 16 15 21 16 18 25 28 33 33 38 38 41 44 47 56 64 68 71 75 73 80 88 82 73 62 59 59 56 59 70 79 88 84
25 20 17 17 18 18 17 19 19 21 16 17 20 21 16 16 21 23 29 35 41 39 44 48 48 50 59 62 60 58 67 76 76 72 62 51 48 48 48 64 76 74 81 85
20 16 17 18 20 17 22 16 17 17 20 27 25 35 20 16 19 23 27 39 35 36 43 46 47 50 51 53 54 55 51 60 63 58 52 50 49 49 50 64 79 80 77 84
20 18 18 21 19 16 20 16 20 20 22 23 29 34 19 16 19 21 22 31 35 38 40 44 43 49 51 51 56 52 48 47 48 50 53 48 49 49 46 50 78 79 76 82
16 12 13 15 16 15 15 18 20 21 24 36 23 23 24 25 16 15 18 22 28 40 39 33 37 42 46 49 49 54 53 50 48 55 48 56 53 52 51 59 70 83 76 80
17 16 12 13 18 15 19 24 38 47 43 42 30 24 19 26 16 12 14 20 24 27 33 34 35 36 37 45 50 52 55 52 50 59 53 52 59 53 55 55 67 83 90 86
24 25 15 15 18 20 21 24 43 79 56 38 31 24 12 12 11 11 12 13 18 21 27 28 29 35 36 39 47 51 52 53 50 52 61 64 57 64 58 58 67 79 86 88
24 21 13 15 16 17 23 28 20 34 39 50 29 20 12 11 11 11 12 13 17 21 22 24 27 27 32 36 45 52 52 51 50 52 56 62 67 68 67 67 71 80 83 86
20 26 15 14 15 16 18 18 30 29 47 47 24 22 34 18 14 13 12 15 18 19 21 22 22 28 27 32 39 49 52 50 51 50 58 63 68 72 72 75 81 85 85 88
18 22 21 14 18 20 20 23 28 24 28 44 48 31 21 17 12 14 13 14 14 19 22 22 22 21 28 30 33 46 51 51 49 50 54 63 71 71 79 84 92 89 86 94
18 21 29 19 15 15 17 22 25 38 32 34 55 38 15 17 14 14 14 14 15 15 18 23 23 22 22 28 33 41 48 49 49 46 55 66 72 74 82 90 96 93 97 98
20 25 33 27 20 19 22 18 20 24 27 35 53 37 17 13 14 14 15 15 14 18 16 21 26 28 26 27 31 35 46 49 50 50 55 71 92 88 92 99 100 100 100 100
40 24 27 36 28 24 25 19 18 24 44 38 34 25 20 15 16 16 17 20 17 16 15 18 25 29 30 32 34 40 56 62 77 87 95 98 100 100 100 100 100 100 100 99
37 36 25 21 18 18 20 22 21 22 22 32 32 23 18 15 13 15 14 17 23 23 14 15 18 31 35 44 79 83 88 91 94 99 99 100 100 99 99 100 99 100 98 98
30 43 29 31 20 19 20 18 19 18 17 17 19 20 14 12 11 14 13 13 16 17 24 20 16 35 46 78 83 91 96 99 100 100 100 100 100 100 100 100 100 100 100 98
39 40 37 44 26 22 34 23 17 15 15 16 21 17 14 15 14 14 14 15 16 22 30 30 26 50 64 79 84 90 98 99 99 99 100 99 99 100 100 100 100 99 97 92
48 44 40 55 60 55 26 18 16 18 16 16 15 14 14 14 13 14 18 17 24 30 35 36 48 56 72 81 86 93 95 98 99 99 100 100 100 100 99 97 93 86 80 79
39 51 76 61 54 34 24 21 22 24 24 18 16 15 14 13 19 22 20 23 26 36 41 46 49 55 72 80 84 85 88 89 88 90 92 90 89 87 86 82 76 78 85 84
37 43 67 71 59 63 36 21 20 22 36 18 17 20 18 19 35 27 27 28 37 38 42 48 53 57 61 68 72 71 73 76 80 79 79 81 84 85 78 79 85 83 81 68
64 68 70 72 74 48 24 22 24 42 40 27 20 19 21 22 30 33 34 39 39 40 43 48 51 54 56 57 59 60 64 69 73 76 77 80 77 77 78 76 64 52 45 51
69 69 81 68 73 66 25 28 32 32 30 27 24 22 26 45 41 40 40 41 39 40 43 47 49 50 54 56 58 61 63 68 68 70 70 71 60 54 53 49 48 47 52 54
84 82 63 51 56 40 37 33 36 35 33 34 32 28 27 45 41 40 42 41 39 40 44 45 47 54 56 56 55 54 60 65 62 59 53 50 47 48 48 49 43 36 36 42
39 42 54 45 43 46 37 33 32 30 35 29 27 30 28 42 40 41 40 39 39 40 41 44 50 52 52 50 50 54 54 55 56 54 51 45 40 34 30 31 31 39 47 52
34 36 43 42 33 34 34 30 38 37 34 33 30 28 32 39 40 39 38 39 38 40 41 45 50 51 49 48 51 52 54 52 51 48 42 38 35 35 34 42 45 58 64 55
25 30 46 61 36 41 38 45 45 45 42 36 36 35 32 32 38 36 37 37 38 40 42 45 46 47 50 51 50 49 48 46 43 39 45 47 43 36 33 48 55 45 47 48
Wind_Speed
17 12 15 20 19 20 12 14 16 5 17 6 10 6 12 7 7 9 11 10 13 14 20 26 28 34 31 31 32 34 29 34 31 28 26 23 22 24 21 20 19 22 22 22
16 18 19 21 18 9 12 11 15 9 9 2 10 6 9 10 8 11 12 11 13 13 15 18 28 31 31 33 33 34 33 28 27 26 25 25 25 27 26 26 25 22 22 20
20 18 19 19 8 9 10 13 14 11 6 12 13 13 7 14 14 13 14 12 15 16 17 18 24 32 36 35 34 32 35 33 31 30 28 24 24 23 25 24 24 23 21 21
21 21 12 11 10 13 13 9 14 9 10 7 8 9 15 12 12 12 15 17 14 16 20 17 23 27 33 37 35 35 31 33 32 30 26 27 21 19 21 23 23 22 23 22
21 21 18 14 15 15 13 8 9 11 12 14 9 10 4 7 18 16 13 18 19 18 15 23 22 31 35 34 35 30 26 26 28 29 22 27 22 23 23 24 25 23 22 23
21 17 19 21 14 14 14 13 10 12 12 10 14 8 6 4 11 15 17 16 19 22 21 18 29 33 33 36 33 33 31 27 27 33 30 22 27 23 22 23 22 24 26 27
21 23 18 14 18 14 11 10 7 6 7 7 3 9 5 16 14 2 2 17 15 18 21 21 22 23 30 33 34 31 32 31 30 32 32 33 25 30 22 22 28 26 26 28
17 16 23 13 14 13 14 14 5 6 4 4 4 6 3 11 10 5 5 4 7 11 15 18 18 28 32 34 35 33 32 32 31 31 31 32 34 25 29 26 25 26 25 26
16 21 20 17 14 19 14 15 17 7 10 5 7 13 10 8 5 4 3 0 6 8 7 13 18 24 31 34 36 36 34 33 32 33 32 30 30 30 27 26 23 21 22 22
19 15 22 23 19 18 17 11 13 8 5 10 8 10 8 9 7 7 6 6 6 2 4 7 11 21 28 32 37 38 37 31 31 29 32 31 30 28 27 23 26 22 19 16
22 12 14 17 18 18 12 12 10 13 10 8 5 3 10 4 2 8 5 7 4 5 5 3 3 6 25 28 29 37 35 31 26 30 31 30 26 24 22 21 15 16 17 18
24 9 13 18 16 17 17 16 17 8 10 7 6 9 3 5 3 4 3 4 6 5 5 6 3 2 5 12 18 26 27 24 24 25 30 30 27 22 21 19 19 21 20 21
18 17 11 16 17 16 17 20 17 15 12 13 7 4 8 7 4 5 3 6 6 8 6 7 6 5 5 3 3 11 21 21 21 20 18 23 22 27 24 19 20 18 21 19
9 17 15 11 12 12 16 19 18 16 8 9 12 12 12 13 8 10 7 4 9 5 7 6 10 9 9 9 8 7 12 12 15 18 22 24 20 20 18 17 17 18 20 24
4 14 19 19 19 17 18 20 19 20 16 14 13 16 15 12 1 4 3 4 8 14 6 5 4 10 12 15 21 19 18 17 17 19 20 19 19 19 18 16 18 19 19 19
8 13 14 20 20 22 16 20 21 21 20 19 15 17 14 13 12 9 7 3 4 3 8 6 2 12 12 22 19 15 15 13 14 21 22 20 20 19 19 20 20 21 19 17
12 8 13 16 19 17 18 16 13 13 14 13 13 10 11 9 10 7 2 3 4 6 4 2 2 11 18 21 21 18 20 18 20 22 22 22 22 23 22 23 22 21 22 21
8 11 10 9 3 23 10 12 15 13 12 13 14 11 10 11 10 2 6 1 7 7 6 5 6 12 22 24 22 23 21 19 20 20 21 21 22 22 22 23 23 23 21 16
9 4 3 7 14 12 19 10 9 9 14 12 14 13 12 13 5 3 5 3 5 8 7 6 10 14 24 24 24 23 21 20 20 20 21 20 21 21 21 21 21 17 13 10
13 12 4 6 11 16 9 12 4 7 12 13 12 9 11 6 4 1 9 6 9 9 11 12 14 16 18 23 26 25 24 22 21 20 21 21 21 20 20 17 13 12 11 10
6 6 13 7 5 5 8 12 7 14 5 12 12 11 7 5 3 12 10 10 10 12 15 17 18 17 18 20 21 21 21 19 20 22 21 20 19 17 15 15 14 11 10 10
6 10 6 6 6 15 5 4 19 8 2 7 6 5 4 11 11 12 11 12 12 13 17 19 17 17 19 20 20 21 20 22 23 22 20 17 16 15 13 13 11 9 9 7
5 9 4 5 3 2 6 5 5 5 2 4 6 5 1 12 10 11 11 12 12 13 16 18 17 19 19 20 20 20 22 22 21 19 18 17 15 13 12 12 9 8 7 6
16 15 2 6 7 11 5 3 3 5 5 4 4 4 3 10 11 11 11 11 11 14 14 17 19 16 17 18 18 21 21 20 18 18 17 16 15 13 11 10 7 8 6 6
6 12 14 13 15 7 15 11 6 5 6 5 5 3 7 9 11 12 12 13 12 14 16 18 16 16 15 17 19 18 17 17 17 16 14 12 12 11 9 10 11 5 6 4
10 9 5 2 5 4 3 5 5 4 6 5 3 4 4 5 8 10 9 10 13 14 16 16 17 18 18 17 15 14 13 15 16 15 14 12 10 7 7 9 7 4 1 1
Wind_Direction
214 226 233 239 233 246 282 303 292 116 261 243 283 302 177 232 164 137 143 146 140 152 147 155 155 157 164 173 170 171 174 178 185 198 198 199 179 195 203 197 203 205 201 204
227 220 238 247 267 302 290 277 280 300 333 3 290 232 228 178 155 175 166 182 146 150 148 152 151 153 164 171 179 184 186 193 193 195 195 191 194 199 203 201 194 197 200 213
223 229 220 248 260 248 251 261 276 272 256 249 335 321 195 172 178 191 173 169 157 175 167 169 167 165 169 183 193 195 193 187 191 199 199 192 196 199 201 194 196 205 207 212
225 239 242 237 236 235 246 253 269 286 286 272 259 266 223 212 188 204 175 168 173 189 172 178 172 178 179 187 201 205 199 188 192 204 192 189 192 203 198 197 197 204 205 211
229 232 239 224 238 241 262 309 299 281 274 287 209 268 112 173 216 189 201 172 178 172 198 179 184 186 192 194 199 206 209 204 202 195 208 187 195 204 210 208 185 200 206 219
234 231 227 241 228 242 258 275 258 263 259 262 269 219 112 298 259 177 190 184 181 172 190 194 182 187 195 197 202 197 204 210 213 193 202 198 198 212 212 192 194 196 209 209
222 235 229 230 226 228 238 229 241 238 239 244 192 258 178 201 221 93 119 183 187 180 181 189 186 187 189 195 198 199 198 210 213 193 199 207 210 208 220 220 199 202 198 205
214 220 227 196 229 214 217 217 203 193 298 278 323 254 200 137 101 150 165 261 170 191 186 189 191 185 191 195 193 197 201 208 213 209 200 204 211 212 215 228 204 198 197 203
207 227 215 208 206 239 203 221 251 236 240 262 222 254 183 125 116 131 234 181 202 190 209 206 191 192 190 190 192 195 201 207 212 210 207 207 208 212 218 224 216 199 209 211
241 219 231 199 195 226 251 231 227 232 251 249 270 262 343 200 197 135 178 124 116 47 288 244 211 193 190 189 190 194 198 204 208 213 205 207 210 212 218 219 219 210 195 202
239 253 222 219 199 208 217 236 248 241 225 240 269 141 169 37 148 166 174 143 139 144 152 255 285 228 193 196 191 189 191 198 208 209 206 202 202 209 209 207 209 203 207 215
232 234 249 207 194 212 237 214 236 243 236 228 170 257 170 317 304 241 206 217 184 170 148 147 187 237 280 200 182 179 183 194 210 216 199 193 198 198 202 200 198 200 200 203
210 233 233 240 196 204 222 240 213 236 244 246 233 250 276 237 198 310 253 256 261 167 209 150 151 164 193 211 213 172 176 191 209 218 198 187 168 169 173 182 183 189 189 190
331 220 228 224 215 210 224 232 237 226 233 257 261 261 250 278 201 223 201 275 287 188 195 191 164 165 164 161 168 137 103 119 115 131 139 146 151 153 161 166 163 166 169 167
340 244 230 236 240 227 214 222 235 249 249 233 230 249 259 265 286 334 282 156 136 243 208 234 198 150 141 119 88 88 88 96 109 113 122 130 140 138 146 152 154 158 163 164
253 270 230 247 228 248 251 223 215 219 242 258 255 258 265 277 273 211 235 244 216 258 19 10 235 133 124 107 109 104 98 100 116 116 114 122 128 132 143 147 148 150 147 146
244 251 229 239 246 244 249 243 249 227 231 244 251 260 269 277 273 273 245 258 182 124 126 276 313 106 110 121 121 120 114 123 120 117 117 119 126 131 136 140 141 142 144 147
288 249 223 225 218 240 264 248 250 262 270 277 271 264 263 276 278 32 87 163 141 140 161 157 108 122 110 122 122 122 128 130 127 127 127 128 128 129 132 136 145 148 148 153
272 293 272 196 236 259 234 223 239 230 249 258 251 262 258 266 67 132 147 129 139 138 144 130 135 135 126 126 131 133 139 139 134 129 127 131 133 132 139 145 149 151 159 177
226 279 203 249 220 233 237 229 181 237 252 245 253 267 273 216 177 23 125 134 113 130 145 146 142 140 143 147 150 148 146 142 138 138 138 139 140 142 144 149 158 168 182 171
183 230 244 244 243 247 220 229 198 223 212 254 258 263 261 261 67 121 124 124 139 148 151 150 153 150 146 145 145 141 134 138 143 141 142 145 148 155 163 164 154 150 141 132
196 203 207 226 227 238 1 352 218 218 194 261 284 280 20 109 117 131 145 156 162 162 156 157 153 148 147 152 147 142 144 145 146 147 147 157 151 135 135 136 137 139 136 130
159 263 212 194 196 270 216 233 340 16 300 323 323 332 123 138 147 153 158 165 166 164 161 163 153 147 155 155 157 144 142 146 146 147 141 133 135 135 140 137 135 143 134 133
198 189 230 293 276 280 276 227 261 299 329 336 337 333 295 153 158 166 167 167 170 165 169 156 150 156 153 156 144 134 136 144 146 139 134 136 133 129 130 129 126 119 114 113
230 174 202 220 236 227 287 291 242 311 294 261 282 240 297 165 174 174 174 172 168 170 161 154 158 148 137 120 118 130 138 145 136 130 128 120 127 125 115 108 99 124 125 145
232 221 220 180 217 195 248 105 43 323 324 304 199 279 269 217 166 172 177 167 164 154 152 145 138 125 109 111 114 119 130 131 129 124 109 109 111 106 108 125 118 134 134 5